RH
56 55 55 54 51 49 47 45 44 43 42 41 35 27 21 19 19 16 13 12 11 12 11 10 10 9 9 9 10 12 14 14 15 25 29 16 5 7 10 10 12 16 18 18 17 16 17 18 21 23 27 33 32 34 33 30 39 50 65 79 78 79 84 81 86 85 73 75 85 85 86 84 80 77 67 64 58 48 49 51 52 55 57 60 61 63 64 66
55 55 55 54 53 51 48 45 43 42 41 40 39 34 26 20 19 18 15 13 11 11 11 11 10 10 9 8 10 13 16 19 28 39 29 12 9 10 8 8 14 18 18 19 17 14 18 17 16 17 23 31 30 31 28 28 46 59 71 79 76 80 79 76 82 81 73 77 85 86 87 84 78 78 72 71 68 55 55 58 59 63 63 62 62 65 67 69
56 56 55 55 54 52 49 46 43 41 40 39 39 38 33 24 19 18 17 14 12 11 11 11 11 11 9 9 12 15 25 37 44 41 23 13 12 9 9 11 16 20 18 17 15 12 14 13 13 12 16 24 26 26 23 33 53 56 71 82 76 78 75 76 82 82 82 81 85 86 86 83 77 78 77 76 71 60 60 63 68 72 71 69 66 68 71 72
57 55 54 53 52 51 48 45 42 40 39 38 38 38 38 30 22 18 18 17 13 11 11 11 12 12 9 10 13 19 34 43 37 27 18 15 12 8 9 13 18 22 19 17 15 13 13 11 10 10 13 21 22 19 20 37 51 49 66 76 68 72 72 75 83 85 86 82 85 88 83 80 77 78 80 78 70 63 60 58 65 73 73 72 70 69 71 71
52 50 48 48 47 46 45 43 41 39 37 37 36 36 37 34 26 18 18 18 15 12 11 11 12 12 10 10 18 27 33 33 23 15 15 14 13 13 9 11 17 19 20 18 16 14 13 11 10 12 17 22 20 19 25 33 39 46 59 63 63 72 74 77 84 84 83 83 86 89 84 81 80 80 81 80 70 64 64 56 58 66 67 68 68 67 68 68
47 45 44 43 43 43 42 41 39 37 36 35 34 34 35 35 28 19 18 18 16 13 10 11 12 13 10 12 27 33 27 23 19 12 13 11 8 14 13 12 15 17 21 19 16 14 11 12 14 18 21 20 17 21 30 29 33 50 55 54 59 66 72 78 83 83 81 84 87 89 87 84 84 82 82 82 70 67 66 54 54 61 61 63 64 64 66 66
45 45 45 44 42 42 40 39 37 35 35 33 33 33 33 34 28 20 18 18 16 13 11 11 12 13 11 19 36 40 35 26 16 14 16 10 2 9 17 14 15 20 21 18 16 14 11 14 17 22 24 19 17 23 32 30 34 49 53 54 55 58 72 77 80 86 85 88 90 90 87 82 84 80 79 82 77 76 67 49 51 58 57 59 61 63 65 66
48 48 47 46 43 42 40 38 36 34 33 32 31 31 33 33 27 19 17 18 16 12 11 11 13 13 11 24 35 35 38 29 15 15 13 8 1 7 18 19 20 22 18 14 14 13 15 19 19 21 23 14 16 29 34 35 43 52 57 61 56 57 74 79 82 89 90 93 91 89 86 81 84 82 78 80 80 81 67 48 49 55 57 59 59 61 62 62
50 50 49 47 45 42 40 38 36 34 33 32 30 30 33 30 23 18 17 17 14 12 11 11 14 13 15 31 37 25 22 18 13 13 8 6 3 5 17 20 20 18 14 13 14 17 21 24 22 20 18 10 19 33 33 41 51 51 56 59 55 63 77 81 85 90 91 92 88 87 86 83 86 81 74 75 79 80 71 58 50 51 56 59 58 58 59 60
51 50 49 47 45 42 39 37 35 34 32 31 30 30 32 27 20 17 16 15 13 12 12 12 14 15 22 38 38 22 15 14 12 11 8 8 5 4 11 13 13 13 14 15 17 22 24 24 22 18 13 9 19 30 33 45 47 43 51 52 54 69 78 81 87 91 89 87 88 89 87 88 88 77 70 75 81 79 74 65 50 46 51 52 55 55 55 57
51 50 49 46 45 42 39 36 34 33 31 31 29 31 31 22 16 16 15 14 13 12 12 14 14 15 28 40 33 17 12 14 12 10 9 9 8 6 6 8 8 9 14 18 18 20 22 22 19 14 11 9 18 29 32 36 37 39 47 46 56 71 78 83 87 91 87 81 88 90 83 85 83 76 78 81 82 83 79 64 46 44 48 46 48 49 50 52
51 50 48 45 44 42 39 36 34 32 30 30 28 30 30 19 15 16 15 15 16 14 14 16 14 18 32 39 31 15 9 14 12 10 11 12 13 10 8 9 6 5 10 17 18 17 18 17 13 11 10 10 17 28 31 32 36 42 49 51 58 67 76 83 84 87 85 81 90 85 74 79 78 78 86 85 82 86 86 72 52 45 46 45 45 44 45 46
50 49 47 45 42 42 40 36 34 31 29 28 27 30 28 18 17 19 18 19 18 16 18 17 14 23 31 25 16 8 6 12 12 11 13 14 16 14 12 14 11 8 9 14 14 12 13 11 10 11 10 11 14 21 28 29 35 44 54 62 59 59 71 78 80 84 79 81 88 77 74 83 80 79 85 85 84 84 84 78 67 58 50 44 43 42 42 43
47 48 46 45 42 41 40 37 34 31 29 27 26 28 25 20 21 23 19 17 16 18 19 17 18 33 36 19 7 4 5 8 9 12 14 14 15 15 14 15 16 15 12 13 12 10 10 8 10 12 10 10 12 20 27 29 42 51 53 63 63 60 71 77 79 83 76 80 85 74 80 85 73 76 83 85 87 84 81 80 78 76 65 50 43 41 39 40
44 45 44 44 42 41 40 37 35 31 28 26 25 27 24 22 22 21 16 13 16 17 15 15 25 42 42 22 9 6 8 13 13 11 12 13 15 15 15 15 15 15 13 12 11 9 9 8 10 12 11 11 11 20 28 34 52 55 48 61 66 58 68 76 75 80 76 78 82 74 83 87 71 75 85 85 87 85 81 81 82 84 78 66 56 49 44 42
41 41 42 42 41 40 39 37 35 31 28 25 25 26 24 25 23 18 14 14 15 13 17 24 29 38 33 17 11 11 12 17 14 10 11 13 14 14 15 14 13 13 11 10 9 8 8 9 12 12 11 12 12 17 27 38 50 50 45 57 65 63 76 80 73 76 75 76 84 78 83 89 76 79 89 87 87 85 82 84 86 87 85 78 68 60 56 53
38 37 38 39 39 39 38 37 35 31 28 24 25 27 29 31 24 18 15 14 16 15 22 31 33 34 25 13 14 15 13 13 11 10 11 13 15 15 14 14 13 12 11 10 8 8 9 10 12 12 13 15 16 18 27 41 49 48 47 48 52 63 79 82 75 74 72 72 79 81 83 83 77 85 93 88 86 83 81 86 87 87 89 85 77 69 65 64
35 34 34 35 37 37 36 36 34 31 27 24 24 26 32 31 23 29 32 28 33 32 30 35 35 32 25 19 21 18 14 11 10 10 10 12 13 13 14 14 13 12 10 10 9 9 11 11 12 14 17 17 17 22 28 35 39 40 46 47 47 61 75 76 73 69 70 72 74 81 86 80 79 91 93 88 87 82 80 86 86 86 88 86 84 78 71 71
33 33 32 32 34 35 35 34 33 31 25 23 24 26 38 40 31 40 48 44 46 34 24 34 33 21 18 19 19 17 14 10 10 10 9 11 10 11 14 12 11 11 10 11 12 11 11 12 14 16 18 18 17 21 22 24 28 30 34 36 43 65 74 69 66 62 63 73 75 79 83 76 81 95 94 90 87 80 80 85 85 87 87 84 83 80 75 74
31 31 30 29 30 32 32 31 31 29 24 23 25 29 42 48 39 42 52 54 50 27 14 27 29 18 15 15 13 13 12 10 11 11 10 10 11 13 14 11 10 11 11 13 13 12 12 13 16 16 16 17 16 17 17 17 20 22 23 23 32 54 64 60 62 61 59 68 73 75 76 72 81 94 93 90 87 81 82 84 85 86 85 84 81 80 78 75
29 29 29 27 27 29 30 29 29 26 23 24 30 34 36 34 29 31 39 44 42 30 20 21 23 20 16 13 12 12 12 12 12 11 11 11 12 14 13 12 12 12 12 12 12 11 12 14 16 14 13 14 14 14 15 15 15 17 19 21 30 44 54 55 57 64 64 64 68 70 70 69 77 87 88 90 87 80 80 81 82 82 80 81 79 79 81 79
27 28 27 24 25 26 27 27 25 23 25 27 33 39 33 22 19 18 21 25 27 31 29 23 22 21 16 15 15 13 13 14 13 12 12 12 13 15 13 12 13 14 12 10 11 12 13 15 13 11 11 11 12 13 14 14 15 15 16 26 36 43 52 54 52 61 66 64 67 67 64 65 71 78 82 88 86 76 75 75 75 77 78 79 78 78 80 81
27 26 25 25 22 22 26 25 23 27 30 30 33 37 29 18 16 16 16 19 19 23 29 27 26 23 21 19 16 15 15 14 14 13 12 13 15 15 13 12 13 14 12 11 12 14 15 14 11 10 10 10 11 12 13 14 14 13 16 29 41 42 48 55 53 57 63 63 64 62 58 58 64 72 76 81 80 73 74 76 74 76 77 74 74 76 79 82
27 24 25 24 20 22 24 21 25 30 30 32 32 29 23 18 19 18 17 21 20 18 20 21 23 24 23 19 15 15 16 13 13 13 12 14 14 13 12 11 13 13 12 12 11 13 13 10 9 10 10 11 12 11 12 13 13 12 12 22 36 40 41 47 49 54 62 62 56 55 58 59 64 72 72 73 74 71 75 79 78 76 76 72 70 74 78 82
27 25 24 23 23 22 19 23 30 29 26 30 29 23 20 19 18 17 20 26 27 21 15 14 18 19 17 16 15 14 14 13 12 12 12 13 12 12 11 10 11 12 12 12 11 12 11 8 9 10 10 11 11 12 12 11 12 12 11 14 28 36 34 37 44 52 63 66 55 49 59 68 72 72 69 69 73 73 76 79 76 73 74 73 72 74 75 76
28 26 23 25 27 21 20 32 36 28 26 27 23 21 20 17 15 16 23 32 32 23 16 13 14 14 13 15 15 12 14 14 11 10 12 12 10 10 11 10 10 12 12 10 11 11 9 8 8 9 11 11 11 13 11 9 10 12 11 10 19 30 32 37 46 50 58 64 52 44 57 68 68 66 64 67 72 72 75 77 75 73 74 74 72 72 71 68
28 27 24 25 29 29 31 34 32 28 27 23 21 22 20 17 17 16 25 42 40 22 14 13 12 11 11 13 13 13 16 15 10 11 12 11 10 8 10 12 10 10 10 9 11 11 8 8 8 9 9 9 12 12 10 10 10 12 10 8 16 27 31 35 39 43 49 52 46 43 57 67 67 63 57 61 71 71 73 76 75 76 76 74 71 67 66 63
28 26 26 27 30 36 38 36 38 36 28 23 23 23 19 16 16 19 32 44 34 16 11 12 10 9 9 11 12 12 14 12 11 13 11 10 10 8 10 12 11 11 10 10 13 12 8 8 7 8 8 8 9 9 8 9 8 11 9 7 14 22 29 34 35 41 44 47 51 51 51 59 70 71 58 58 68 70 71 73 72 75 75 73 70 65 64 63
27 27 28 28 31 38 43 44 44 36 27 25 25 21 17 15 18 29 41 38 21 11 11 11 9 9 9 11 11 10 10 10 11 12 11 11 11 10 11 11 10 11 10 11 14 12 9 8 7 7 6 7 7 6 7 7 7 9 7 8 11 13 22 29 31 39 42 45 54 51 42 46 58 65 62 62 65 65 67 68 66 69 70 70 68 64 63 65
24 29 32 32 37 44 47 43 34 29 29 27 24 20 17 21 30 41 46 36 19 12 11 10 10 10 10 12 12 10 10 9 10 12 12 13 12 11 12 10 9 11 12 12 12 12 9 9 10 8 7 6 5 6 6 5 6 7 8 11 10 16 30 39 41 41 39 44 48 42 40 41 46 57 64 64 60 55 59 65 66 65 68 69 68 66 64 65
20 29 35 36 40 44 44 37 27 27 31 29 25 22 22 29 37 42 39 27 18 14 11 11 11 10 10 13 12 11 11 10 11 14 14 14 13 13 13 13 12 13 15 14 12 12 9 9 11 9 7 6 5 6 7 7 7 7 10 13 13 24 39 51 55 41 31 39 40 36 35 34 40 51 53 51 49 47 52 60 62 63 66 68 68 67 65 64
21 28 34 35 36 37 35 28 22 26 29 27 25 25 32 38 37 37 31 20 19 17 12 12 12 10 10 11 12 12 11 11 11 14 16 16 17 17 15 17 16 15 19 20 14 12 11 9 9 7 7 6 5 8 8 9 9 8 13 17 17 23 27 38 48 38 31 34 32 31 31 32 43 47 42 42 43 45 48 52 55 57 62 66 67 67 64 63
25 29 31 33 34 33 29 21 19 27 27 24 26 31 40 44 40 37 29 21 21 15 9 12 10 9 11 11 12 11 11 12 10 12 15 16 18 18 15 16 15 13 19 21 15 13 13 11 10 8 7 7 6 8 9 10 10 9 12 16 18 21 21 25 35 36 35 31 25 26 26 32 42 39 36 37 36 41 43 44 51 53 57 64 65 66 65 62
27 29 27 32 35 33 30 24 25 32 29 26 34 38 39 43 42 35 26 21 19 13 10 11 9 10 11 11 11 11 12 12 9 11 15 16 18 19 16 14 12 12 14 15 14 13 14 16 14 9 7 7 6 7 9 10 10 9 11 14 16 24 28 27 31 33 34 31 27 28 28 34 40 35 37 41 44 51 48 44 53 55 57 63 63 65 66 63
29 28 24 29 33 30 27 26 30 34 32 32 39 44 45 46 39 30 24 20 17 15 13 11 9 11 11 11 11 10 11 11 9 11 15 17 18 19 17 14 13 12 11 15 17 13 12 14 13 8 7 7 6 7 8 8 10 8 9 11 11 18 25 29 33 30 30 34 31 31 36 39 42 43 48 55 62 68 64 59 62 62 63 66 65 66 65 64
27 28 27 30 32 30 25 25 29 31 33 38 45 48 46 41 31 25 23 19 17 17 16 14 13 12 12 13 11 9 9 9 9 11 13 15 16 16 15 13 12 11 10 15 16 13 12 12 9 7 8 6 6 7 6 7 13 13 10 10 9 10 12 18 28 30 33 39 32 35 48 46 45 50 50 56 66 70 71 70 67 67 67 68 68 66 64 65
27 33 37 34 32 30 27 27 29 28 32 41 49 51 42 30 23 22 21 19 17 15 15 18 17 14 15 15 13 12 10 8 9 10 11 14 14 14 14 11 11 10 9 11 12 11 12 11 9 8 8 7 6 7 7 6 11 12 9 11 11 10 13 16 21 25 35 42 35 38 53 52 53 57 49 53 66 70 72 73 72 71 69 68 70 67 66 68
37 41 42 34 27 25 26 28 29 29 34 42 51 53 41 27 21 20 19 16 15 14 15 18 17 15 16 16 16 15 11 9 10 10 12 15 15 13 12 10 10 10 8 9 11 11 10 11 12 10 6 7 6 6 8 6 7 8 7 11 11 11 19 21 19 19 23 32 35 38 48 50 52 54 49 53 64 69 72 74 74 73 69 68 70 70 72 74
47 48 40 27 23 24 23 24 27 31 38 45 50 46 34 24 21 19 18 16 14 14 16 16 15 16 16 16 17 15 12 11 11 12 12 13 15 14 11 10 10 10 8 9 10 10 11 11 13 12 8 8 8 8 10 8 8 7 5 8 11 14 20 19 19 23 24 31 39 38 40 48 50 48 48 52 58 65 71 74 73 70 68 68 70 74 77 76
52 49 37 24 23 25 21 22 30 39 43 46 46 38 27 23 20 17 17 16 15 15 16 15 15 17 17 16 16 15 14 14 14 14 13 12 13 12 10 9 9 9 8 8 8 9 11 10 12 14 10 8 10 9 10 10 9 8 8 9 9 10 15 14 17 22 25 38 50 44 43 53 55 48 45 46 51 60 67 70 70 67 67 68 71 75 78 76
58 45 32 23 22 24 24 29 37 41 42 42 39 30 24 24 20 18 17 16 16 15 14 15 17 18 18 18 18 16 15 16 15 15 14 13 12 11 13 14 12 10 8 9 10 8 10 14 15 15 11 10 13 11 8 9 9 7 10 11 9 9 12 13 17 22 24 35 47 48 51 57 53 46 43 43 49 57 61 63 65 66 69 73 74 76 78 78
58 42 29 23 24 23 26 37 42 38 36 36 31 25 24 24 21 19 17 16 18 16 15 17 18 20 20 18 19 18 18 19 17 16 16 15 12 14 20 21 17 15 12 9 9 9 13 17 13 15 17 12 10 10 8 8 9 8 8 9 9 13 15 13 18 28 26 27 38 49 54 55 53 50 45 46 51 56 57 59 62 69 73 75 76 77 78 78
55 49 32 22 22 23 29 41 44 39 35 30 23 19 19 19 18 18 17 17 19 18 18 19 18 20 20 18 19 20 21 21 19 18 17 16 15 18 25 24 19 20 19 14 12 11 16 17 13 24 39 33 21 17 13 10 9 7 8 9 7 10 14 13 22 35 30 26 41 58 59 57 61 61 53 51 54 55 58 61 64 72 76 75 76 77 77 77
60 60 45 26 18 22 31 36 36 37 35 26 20 18 17 16 17 17 17 20 22 21 22 22 20 21 20 19 20 18 20 23 22 23 24 24 23 23 27 25 21 25 30 30 26 15 15 21 20 24 36 40 35 27 20 19 16 9 9 11 8 10 11 10 21 31 26 25 39 52 54 51 54 59 57 55 54 55 60 63 64 70 74 74 74 76 77 79
60 57 50 33 21 23 30 30 32 38 35 27 23 22 21 19 17 16 18 21 23 23 25 25 24 25 24 24 23 19 19 24 26 29 33 33 30 27 28 26 24 30 36 38 34 21 16 24 27 26 24 25 31 31 25 24 19 12 12 10 8 10 8 10 20 22 20 28 38 44 48 47 48 54 57 54 53 57 62 63 63 67 70 72 73 75 78 80
51 46 45 41 32 31 33 30 34 41 39 32 28 25 24 22 20 18 19 23 22 21 24 27 26 28 28 29 29 26 26 28 30 34 38 37 34 30 29 27 25 32 39 38 32 25 21 24 35 45 35 24 35 41 31 21 15 13 13 11 11 10 9 13 19 20 25 33 35 38 41 43 47 53 55 54 53 57 62 63 64 66 68 70 71 73 77 79
50 49 48 51 47 41 40 38 38 43 42 35 30 27 27 27 25 23 22 23 22 20 23 26 27 29 31 32 33 31 32 34 35 36 38 37 34 30 28 27 27 34 39 33 27 28 27 22 29 40 31 22 30 32 21 15 14 13 12 11 12 11 12 15 14 20 31 29 25 36 42 40 44 49 51 52 51 55 62 62 62 65 68 68 68 72 78 81
52 53 48 51 56 53 50 47 44 44 41 37 32 29 29 31 30 30 27 23 22 23 27 29 29 28 29 31 35 36 38 41 41 39 38 36 34 33 31 28 28 32 33 28 26 28 27 23 21 22 19 18 19 15 12 13 12 11 12 12 11 11 12 13 13 21 28 19 20 41 47 39 40 44 45 46 47 53 60 59 58 62 66 65 66 73 81 83
59 63 57 53 59 61 56 50 46 46 43 42 40 33 30 33 34 32 29 27 28 27 29 34 32 28 27 29 35 40 43 44 42 40 38 36 36 37 37 35 32 29 27 29 29 27 29 34 30 20 16 16 14 11 12 12 11 12 13 11 12 13 11 10 13 18 21 19 24 38 42 38 36 37 38 39 43 50 56 58 59 63 65 64 65 73 80 81
67 71 71 70 70 66 59 49 44 45 43 42 43 37 31 34 35 32 28 31 35 32 30 34 34 30 28 29 33 37 38 37 38 37 33 34 38 38 39 40 35 29 28 31 31 29 32 39 37 28 24 23 19 14 12 11 12 13 12 12 12 10 12 21 30 33 35 34 32 35 42 40 32 31 36 40 46 54 59 60 60 63 65 63 64 73 79 79
66 65 69 80 84 75 62 48 41 45 46 44 43 39 35 34 33 32 30 29 31 32 32 33 34 33 31 31 34 36 33 30 31 31 27 30 35 34 35 37 32 31 34 33 32 33 33 36 36 32 34 34 23 14 13 14 14 14 14 15 14 11 19 35 45 47 50 48 40 36 40 38 30 33 42 47 51 55 58 59 60 63 65 61 63 73 78 77
70 68 68 78 85 78 63 48 44 48 49 44 40 37 35 34 31 31 36 33 27 28 32 32 33 36 38 40 41 39 34 29 27 27 26 27 30 29 30 32 29 31 37 35 35 36 33 36 39 37 41 39 23 15 16 13 16 26 26 16 12 18 31 44 48 47 51 54 49 41 35 32 34 39 44 49 51 52 55 56 58 62 64 61 62 71 75 75
Wind_Speed
17 18 18 18 19 19 19 19 18 18 18 18 17 16 15 15 14 13 13 12 12 12 11 11 10 10 10 11 12 13 14 15 14 11 9 11 12 9 9 11 6 2 6 9 10 9 8 9 13 13 9 6 4 3 6 6 3 3 3 2 0 2 4 3 5 4 3 4 3 1 2 1 2 5 4 5 6 8 9 6 9 9 11 16 21 28 29 26
18 18 18 18 19 19 19 19 19 18 18 18 17 17 15 15 14 14 13 12 12 12 11 11 10 10 10 11 11 13 15 16 13 12 13 11 11 10 10 11 9 5 7 10 10 10 6 6 7 5 3 3 3 4 4 3 2 4 2 2 2 4 4 4 4 3 2 3 2 1 3 2 3 3 4 4 5 5 10 9 11 13 15 18 22 26 26 25
18 18 18 19 19 19 19 19 19 19 18 18 17 17 16 15 15 14 14 13 12 12 12 11 10 10 9 10 10 12 14 11 7 7 6 4 9 13 10 11 11 8 8 9 9 11 9 9 10 6 3 4 4 5 4 2 2 3 3 2 5 5 3 4 4 4 3 4 4 1 3 1 2 1 3 3 3 3 9 10 9 13 14 15 17 21 24 23
19 19 19 19 19 20 20 20 20 19 19 18 17 18 17 16 15 14 14 13 13 12 12 11 10 10 9 9 9 11 12 5 2 4 2 0 5 7 12 14 12 9 8 8 10 12 12 13 11 4 3 5 3 1 3 2 2 2 4 4 6 4 3 4 4 5 3 5 5 2 1 1 1 2 1 2 4 3 4 10 13 14 15 16 15 18 21 21
20 20 20 20 20 20 20 20 20 20 19 19 18 17 17 17 15 14 14 13 13 12 12 11 10 9 8 8 8 10 8 3 2 5 4 2 3 5 12 16 14 11 9 9 11 10 11 10 6 2 2 4 3 4 1 3 4 2 0 4 5 5 3 4 5 4 3 5 4 3 1 1 1 2 1 3 6 2 2 7 14 15 15 17 17 17 18 18
20 21 21 21 21 21 21 21 21 20 20 19 18 18 18 18 15 13 13 13 13 12 12 10 9 8 7 6 6 6 3 1 5 7 8 6 2 6 11 15 14 12 11 10 10 7 6 4 1 2 3 4 1 2 3 2 5 3 2 4 4 4 3 3 4 2 3 5 4 3 1 2 2 2 2 3 4 4 4 7 15 15 16 19 18 17 16 15
21 22 22 22 22 21 21 21 21 21 21 20 19 19 18 18 15 12 12 12 12 12 11 10 9 7 5 4 4 4 3 4 11 8 8 7 3 7 12 13 14 13 12 11 8 4 3 2 2 3 3 6 2 4 3 1 4 4 3 5 5 4 4 4 4 2 3 5 3 3 2 1 2 2 1 3 3 4 3 6 15 16 17 19 17 15 15 15
22 22 23 23 23 22 22 22 22 21 21 20 20 19 19 19 15 11 11 11 11 11 11 9 8 5 4 2 2 3 1 6 8 2 4 5 3 7 12 14 14 15 15 13 10 4 1 1 4 4 3 5 2 5 4 5 4 1 5 6 4 3 4 4 4 4 4 3 1 3 4 1 0 1 1 2 3 3 2 6 13 15 16 15 15 15 14 15
22 23 23 23 23 23 22 22 22 22 21 20 20 19 20 20 13 9 9 10 11 11 10 8 6 3 2 1 3 3 4 5 2 6 7 4 4 8 12 13 15 16 14 15 11 4 1 2 6 5 2 5 1 6 5 4 1 4 6 6 4 4 5 5 4 4 4 2 0 3 4 0 2 0 2 3 2 2 2 8 12 15 18 15 14 16 14 14
23 24 24 24 24 23 23 23 22 22 22 21 20 20 21 18 11 8 8 10 10 10 9 7 4 1 1 1 4 1 5 4 5 8 7 5 5 7 11 11 15 17 13 11 9 6 6 7 7 4 2 4 1 4 4 3 3 4 6 5 6 6 5 5 4 4 3 1 1 2 2 2 3 1 2 2 2 1 4 7 14 15 17 17 15 15 15 14
25 24 24 24 24 24 24 24 23 23 22 22 21 20 21 16 8 7 8 9 10 9 8 6 3 2 2 3 4 3 5 4 8 9 7 6 4 6 10 10 14 18 12 7 10 15 13 11 8 4 2 2 2 3 4 3 4 5 6 5 5 6 4 4 6 4 2 2 2 2 1 3 3 1 4 4 2 3 4 5 13 14 12 16 16 15 13 14
25 25 25 25 25 24 25 25 24 24 23 22 21 21 20 13 7 7 8 8 9 9 7 5 3 4 1 2 5 9 4 4 8 9 7 5 5 4 8 10 13 17 14 8 10 16 13 13 9 3 4 2 1 2 2 2 5 3 4 5 3 3 2 3 4 4 3 2 4 3 2 3 2 3 5 4 2 4 5 4 7 11 10 13 14 12 11 13
26 26 26 26 25 25 25 25 25 24 23 22 20 20 18 10 6 7 7 8 8 8 6 4 5 4 1 1 8 10 6 6 7 9 8 6 6 6 8 10 11 14 14 10 9 12 12 14 8 3 4 2 1 1 1 3 4 2 2 4 3 2 2 5 3 5 4 1 4 5 1 4 5 7 5 2 3 5 5 4 3 5 6 10 11 10 10 11
26 26 26 26 25 25 26 25 26 25 23 22 21 20 15 8 6 6 7 7 7 6 4 4 6 5 3 5 12 12 10 11 12 13 12 11 9 7 9 13 13 14 15 15 13 11 12 14 8 3 3 2 2 0 2 3 3 2 1 3 2 1 4 4 4 6 4 1 5 6 1 5 6 8 4 3 5 5 4 4 3 3 1 7 8 9 10 10
26 26 27 27 26 26 26 26 26 25 24 22 21 18 11 6 5 4 4 5 4 3 3 6 6 3 2 8 14 11 10 9 15 21 18 17 16 9 9 15 17 16 14 15 14 10 11 12 6 1 3 3 1 2 1 0 2 2 2 3 1 3 3 3 4 8 6 1 5 6 2 4 6 7 4 4 5 5 5 4 3 4 4 3 4 5 6 7
26 26 27 27 27 26 26 26 26 25 24 22 20 15 7 5 4 3 3 2 2 3 6 5 3 2 0 5 8 8 7 7 11 18 19 23 21 13 13 16 14 14 14 13 10 9 9 7 3 1 2 4 1 2 1 1 2 1 4 4 3 3 3 3 3 6 7 3 4 5 3 3 5 6 4 4 5 5 5 4 4 5 4 3 3 4 5 4
27 27 27 27 27 26 26 26 26 26 24 21 19 12 5 4 3 2 3 4 4 5 5 2 1 1 3 7 7 6 6 7 8 11 17 26 25 17 13 11 8 11 12 10 6 5 5 2 1 2 1 2 1 4 1 3 4 3 3 4 3 4 4 2 2 3 6 5 5 6 4 5 5 3 5 4 6 6 5 4 4 5 4 3 3 4 5 5
28 28 27 27 28 27 26 26 27 27 24 21 18 11 5 2 1 3 5 6 6 3 1 3 1 1 3 5 4 3 3 7 11 11 15 22 24 19 11 6 5 7 4 3 2 2 1 1 1 1 3 3 1 4 3 7 6 4 5 3 2 3 5 5 2 4 8 5 5 5 6 9 7 2 4 3 5 6 5 5 4 5 4 3 3 4 4 4
29 29 28 28 28 28 27 26 27 27 25 21 16 9 3 1 2 2 3 3 3 1 2 2 4 1 2 5 5 5 6 8 12 12 14 16 18 17 9 3 4 6 3 1 2 3 2 1 2 0 4 6 5 5 8 10 6 5 5 3 4 3 4 5 2 5 10 6 4 7 7 8 6 4 4 3 4 6 5 4 4 5 4 4 3 3 3 4
29 30 29 29 28 28 27 27 27 27 25 21 13 5 1 1 1 1 0 2 4 6 6 7 8 5 6 7 6 9 10 8 11 11 16 17 14 10 4 2 2 4 3 3 3 3 3 2 3 5 8 9 9 9 10 11 9 9 9 6 5 6 5 4 3 5 9 6 5 8 6 6 6 6 5 4 4 5 5 5 4 4 4 4 4 4 4 3
30 30 30 30 28 28 27 27 27 26 24 18 9 2 1 1 1 2 2 4 9 11 11 11 13 11 11 11 11 9 7 4 8 8 16 17 12 6 2 2 3 1 4 5 3 0 4 4 7 10 12 12 11 9 9 11 11 11 10 7 4 5 4 3 4 5 7 5 5 6 5 6 7 6 5 5 6 7 7 7 5 5 4 3 4 5 4 3
31 30 31 31 29 28 27 26 26 23 17 9 3 1 3 3 1 5 4 4 8 13 15 13 12 12 14 17 22 14 5 3 5 5 14 16 9 5 3 2 5 4 4 3 2 1 2 6 11 14 12 10 10 10 11 12 11 11 7 4 4 4 2 1 2 6 7 4 4 6 7 6 6 5 5 7 8 8 8 9 8 7 6 5 5 5 5 4
30 31 32 31 30 29 26 26 23 15 9 6 2 4 5 8 8 11 5 4 8 9 11 11 10 10 11 15 20 12 4 5 6 5 13 14 7 6 4 3 6 5 3 4 4 3 3 8 14 14 10 10 11 12 12 11 10 8 5 5 4 5 5 1 4 6 7 5 2 6 6 3 2 2 4 8 7 4 6 8 7 6 7 7 6 6 6 5
31 31 32 32 31 27 25 26 16 7 10 10 8 8 16 17 12 11 5 2 7 4 8 11 10 7 11 12 9 7 6 6 6 6 13 13 5 5 5 5 6 4 5 7 8 7 8 12 11 10 10 11 12 14 11 7 7 7 5 6 4 8 8 3 4 6 4 3 1 5 2 4 2 4 5 6 5 5 4 6 5 5 6 5 5 5 6 7
32 32 31 32 30 26 27 19 3 4 14 11 9 15 21 14 7 5 2 1 5 5 5 8 7 6 12 11 6 5 5 6 6 7 13 14 8 5 4 4 4 5 8 8 7 6 11 14 7 7 11 12 11 12 9 6 5 6 3 8 9 14 10 5 7 7 3 4 5 5 2 5 4 7 7 5 5 7 4 7 9 7 7 6 7 6 6 6
33 32 31 31 29 28 22 7 1 10 14 6 7 16 15 9 6 2 1 3 3 5 2 2 3 6 8 7 6 3 2 5 7 11 16 16 13 8 3 2 2 6 7 6 5 4 9 13 8 9 12 12 12 11 10 7 2 4 4 7 11 14 10 10 11 8 4 5 6 6 5 3 3 6 9 5 6 9 5 7 10 8 8 8 8 8 8 8
33 32 31 30 27 25 14 4 8 12 6 4 8 13 11 12 11 1 3 4 3 4 2 0 1 5 6 7 9 7 2 5 3 9 14 16 12 5 4 4 3 5 3 1 3 4 6 8 9 11 11 10 10 9 10 7 5 3 5 5 9 13 12 14 13 7 4 2 2 5 5 2 3 6 8 8 7 8 7 8 9 8 9 10 10 11 11 12
33 32 30 28 24 19 10 8 11 6 3 8 10 10 10 13 11 3 4 2 3 2 2 1 1 3 3 4 10 7 4 3 3 4 12 18 12 3 4 7 4 5 3 1 5 7 4 4 8 10 9 7 6 8 9 7 4 7 5 2 7 13 14 14 11 5 3 3 2 6 3 3 4 5 3 8 7 7 9 11 10 10 11 11 11 12 12 12
33 31 29 27 22 12 6 7 7 3 5 10 9 9 10 10 7 5 4 0 2 2 1 1 1 2 0 2 7 6 5 2 2 3 7 14 10 3 4 7 4 6 5 4 6 8 6 6 7 6 5 6 6 8 8 6 4 6 2 2 1 6 10 11 9 5 2 3 4 8 6 3 3 4 2 6 6 9 10 10 10 10 11 12 11 12 12 11
31 30 27 25 17 5 3 8 7 4 9 10 10 9 8 6 5 5 2 1 3 3 0 1 0 3 4 4 4 5 5 1 2 2 4 4 3 3 1 3 2 3 4 3 6 9 9 7 6 4 4 6 7 7 6 7 8 3 5 4 4 5 4 5 4 3 3 2 6 9 10 6 1 3 3 4 6 9 9 7 8 9 10 11 11 10 12 11
29 27 24 21 12 2 3 5 2 5 9 11 12 8 5 4 4 4 1 2 2 3 1 1 2 3 7 8 4 3 5 0 3 5 3 2 2 2 3 2 0 1 4 5 5 7 8 7 5 5 5 5 3 3 2 1 4 3 3 3 2 4 4 4 3 2 2 5 7 7 10 7 2 4 6 8 7 8 11 10 11 12 11 11 11 9 11 10
28 23 16 13 9 6 7 3 1 5 7 10 10 4 4 4 2 1 2 4 3 2 2 1 2 3 6 7 4 4 4 1 2 6 5 4 4 4 3 3 3 0 3 4 4 6 6 6 6 5 6 4 3 1 4 5 3 3 4 5 3 1 3 3 3 1 4 7 5 7 10 5 4 5 7 11 9 8 11 12 13 15 13 12 11 10 9 9
26 17 8 7 7 6 6 4 3 3 6 10 7 4 6 4 0 3 3 4 2 3 2 2 4 4 5 4 4 5 4 3 3 4 5 5 4 5 6 6 6 4 3 4 2 3 4 7 6 3 5 5 6 4 2 2 0 4 5 4 4 2 1 1 4 2 3 6 3 9 10 2 3 4 6 11 11 10 11 12 12 13 13 13 11 10 9 8
21 11 5 5 7 6 4 2 1 2 7 9 5 4 5 2 3 3 2 3 4 5 4 1 4 3 5 4 5 6 4 4 6 6 5 4 4 4 5 6 7 6 3 2 2 1 2 7 5 4 4 4 7 7 6 5 2 4 5 5 4 4 4 3 4 2 3 5 2 5 6 2 2 3 5 7 7 5 7 8 8 8 9 10 9 8 8 8
15 8 5 5 6 5 2 5 4 3 5 5 5 5 3 2 3 3 3 3 3 6 7 2 3 3 3 4 3 5 4 3 6 6 6 6 6 6 5 6 9 7 4 2 3 3 4 7 7 6 6 9 10 6 6 6 1 4 3 5 2 4 5 2 4 4 3 2 1 3 1 2 3 3 5 1 5 4 4 5 7 7 7 7 8 8 8 8
14 8 4 4 5 2 6 8 7 4 3 5 5 3 2 4 3 2 3 4 5 8 8 4 2 2 1 3 3 4 2 1 3 4 4 5 6 7 6 5 9 10 7 5 3 2 3 6 6 3 4 9 12 7 7 7 3 2 1 3 5 4 6 2 3 1 3 4 1 2 2 2 2 3 6 2 5 5 5 6 8 8 8 8 8 8 8 7
16 10 3 3 3 3 6 6 6 4 4 6 4 1 3 3 3 2 4 6 7 7 4 4 2 3 3 2 4 5 4 2 2 2 2 4 4 6 8 6 7 12 12 9 4 3 4 6 8 2 4 8 9 8 6 6 6 4 2 6 3 2 3 2 1 2 4 3 0 1 4 2 1 0 3 2 3 5 5 6 7 7 8 9 7 8 7 7
14 9 4 3 2 6 6 4 5 3 4 5 2 2 3 3 3 4 6 7 6 3 4 3 1 2 3 1 4 6 3 1 2 2 2 3 4 6 9 7 6 12 15 12 5 3 5 4 9 4 7 6 2 4 2 3 4 4 4 4 3 1 1 1 1 1 1 2 1 1 2 3 3 3 4 5 6 6 5 6 7 8 8 8 7 7 6 6
9 6 3 2 6 7 6 6 3 3 6 4 0 2 2 3 6 7 8 7 4 3 3 1 1 2 1 3 1 5 1 1 2 3 1 2 4 5 6 6 6 11 15 13 8 4 4 3 6 5 4 2 3 2 3 5 6 3 2 2 1 3 4 2 2 3 3 3 2 2 0 3 5 6 9 11 10 10 9 7 8 9 8 7 6 6 5 5
5 3 1 4 7 6 7 6 3 5 3 0 2 3 3 4 7 9 9 7 4 1 1 2 2 4 3 1 1 2 2 2 2 2 2 3 4 4 3 4 6 8 11 12 10 5 2 3 4 6 2 3 1 3 6 6 5 2 2 4 2 1 2 2 1 1 4 4 3 3 2 5 5 5 11 13 11 11 11 9 8 8 8 7 6 7 6 6
4 3 1 4 8 6 6 4 3 3 2 2 2 3 4 4 6 9 10 7 2 1 0 2 2 4 5 3 2 2 4 1 1 2 2 2 3 2 7 7 7 7 5 8 8 6 4 3 4 2 1 4 5 5 4 5 6 6 5 5 4 3 2 1 3 3 2 4 4 5 3 6 5 3 7 10 9 9 10 10 8 7 7 7 6 7 7 6
3 2 1 3 3 5 5 4 2 0 1 2 3 4 5 5 5 7 9 7 4 2 2 1 3 3 4 4 4 4 4 3 3 1 2 4 2 3 10 15 13 11 4 4 7 7 6 4 4 4 2 5 7 6 5 7 6 5 4 4 4 4 4 4 4 4 1 3 2 3 2 5 5 3 5 6 6 7 9 10 9 6 7 7 6 6 6 6
3 2 5 13 9 2 4 4 4 2 2 4 3 4 5 5 5 7 9 8 6 5 4 2 2 2 2 3 4 3 4 3 3 2 3 5 5 8 15 18 15 13 9 3 4 5 3 3 3 3 4 3 5 5 5 4 2 2 4 3 3 3 4 5 5 3 3 2 2 4 1 5 6 3 5 5 6 7 7 8 9 7 5 6 7 7 6 6
2 4 5 16 18 5 5 3 4 4 4 4 5 7 6 5 5 7 8 8 8 6 4 5 6 5 5 7 6 3 3 3 2 5 5 4 5 10 17 19 14 10 7 6 6 4 4 2 3 1 4 5 6 6 5 5 2 2 5 3 4 5 5 3 1 3 3 3 5 5 2 6 5 1 6 6 8 8 7 8 9 8 7 6 6 6 6 6
3 1 4 11 17 9 4 1 2 4 6 6 6 7 7 5 4 6 7 8 9 7 4 6 10 9 9 12 11 6 4 3 2 4 5 5 5 7 14 18 14 10 10 13 15 8 4 1 4 5 2 2 1 1 2 3 3 2 4 4 2 5 6 3 1 4 1 4 7 7 4 6 4 2 6 6 8 9 7 8 8 8 8 7 7 6 6 6
2 3 3 7 9 7 1 2 4 4 5 6 5 5 6 6 5 7 8 8 10 9 4 7 11 11 10 14 12 9 8 5 2 3 4 6 5 3 9 13 11 13 17 21 21 10 1 2 1 7 7 6 7 6 5 1 2 5 6 7 6 5 4 2 4 3 3 4 5 5 7 6 5 6 7 7 9 10 9 10 9 8 8 8 7 7 6 6
2 1 4 3 4 5 3 4 6 6 6 6 4 3 6 8 7 8 8 6 8 10 5 7 12 11 10 13 10 8 10 7 4 5 5 6 6 5 7 8 8 16 21 19 16 9 2 4 4 4 5 7 9 8 5 1 2 5 6 7 7 7 4 4 2 5 5 6 4 6 10 13 11 11 12 11 11 11 11 12 12 11 9 8 7 7 8 8
3 0 2 2 2 2 3 5 7 7 9 7 3 4 8 10 10 8 7 5 7 10 7 5 12 13 9 10 8 7 10 8 6 7 6 7 9 9 9 7 6 15 19 13 10 7 2 4 4 3 5 6 6 5 3 1 2 3 4 6 7 8 7 4 4 6 7 6 5 7 12 14 13 13 14 14 13 14 14 13 13 12 11 10 9 8 9 9
3 1 3 3 1 2 3 6 8 7 8 6 4 6 8 10 10 8 7 6 6 9 9 7 11 12 10 8 6 4 7 8 8 8 7 7 9 8 7 6 5 11 14 10 7 7 3 3 7 10 9 7 5 1 3 2 3 4 6 7 7 9 9 7 5 2 6 5 5 12 15 13 12 14 16 14 12 13 13 11 11 13 13 13 11 10 10 9
3 2 4 3 3 3 4 6 7 4 5 6 5 6 8 9 11 8 6 6 6 7 8 9 11 11 9 8 5 4 7 8 9 9 8 8 7 4 4 4 5 9 10 8 6 6 4 5 8 10 8 7 7 4 3 3 2 4 8 8 8 10 8 7 7 5 2 4 1 11 12 7 7 11 11 9 8 10 11 12 12 13 14 15 14 12 11 10
5 3 4 2 3 4 3 5 6 4 4 6 5 6 7 8 10 9 5 4 6 7 8 10 11 10 7 6 7 10 11 10 9 9 8 7 5 2 2 2 6 10 8 6 5 5 5 5 6 7 6 6 7 6 5 5 4 5 7 8 8 7 5 4 4 5 4 4 3 8 8 7 7 6 7 7 10 13 14 14 13 12 14 16 16 14 13 12
10 5 5 2 2 4 4 4 5 4 3 5 6 6 7 7 9 8 5 4 6 8 9 10 10 8 6 6 10 13 14 12 9 8 6 6 5 4 4 4 4 5 5 5 5 2 2 4 5 4 5 6 9 9 6 5 6 4 4 5 4 0 4 5 5 6 5 1 5 6 6 7 6 7 9 9 11 14 14 13 12 12 14 15 16 16 15 14
Wind_Direction
13 11 9 7 3 1 358 355 354 351 351 349 344 338 329 327 325 325 325 323 324 324 327 328 333 340 337 339 336 330 327 317 311 296 265 265 271 252 220 221 232 236 193 205 221 236 263 254 251 250 243 243 220 232 223 206 170 97 81 87 176 205 200 201 195 197 199 213 212 296 317 104 25 325 325 352 17 103 128 100 97 81 88 118 127 135 144 146
7 6 4 3 360 358 355 353 351 348 347 346 347 342 333 326 321 321 320 320 321 320 324 324 332 339 335 340 337 333 328 316 307 281 266 269 268 250 222 217 214 202 188 198 218 226 240 256 277 296 248 228 214 226 209 194 113 103 109 109 222 216 203 214 199 203 208 191 166 276 273 143 100 330 335 31 13 79 113 96 95 95 101 118 128 136 142 143
3 2 1 359 357 354 352 350 348 346 344 344 344 343 338 329 319 317 316 316 318 317 319 321 330 336 336 340 338 335 328 321 307 270 281 281 247 239 213 201 205 213 211 209 234 236 236 267 294 323 287 256 226 215 197 188 94 128 116 116 235 215 216 247 211 216 207 155 137 238 263 124 99 18 349 55 28 61 121 120 113 113 120 127 132 139 143 145
360 359 358 357 355 352 350 348 346 344 342 341 341 342 340 332 320 313 312 313 313 313 315 318 328 332 337 339 340 338 333 344 301 271 326 217 229 219 195 193 198 207 216 233 254 252 256 274 289 301 278 271 257 173 171 168 110 123 122 179 225 180 195 244 208 217 192 141 146 189 240 46 38 82 32 87 80 50 127 141 137 135 135 135 137 143 148 151
358 357 357 356 354 351 348 346 344 343 341 339 338 338 338 334 323 310 308 308 308 310 311 315 324 329 338 339 343 339 343 33 282 292 337 282 212 185 185 186 193 204 212 238 257 262 268 268 283 307 262 272 325 27 211 166 112 94 187 204 200 149 172 229 198 191 150 124 124 120 140 251 335 89 113 105 110 147 223 145 138 140 140 142 145 148 152 156
358 357 356 355 353 351 347 345 342 341 340 338 337 335 336 334 324 309 303 303 305 306 306 312 320 327 333 337 348 344 8 64 267 286 311 300 227 179 177 180 189 198 208 231 248 259 277 271 352 322 286 294 319 98 219 185 108 115 264 229 205 177 170 192 180 170 136 116 115 130 158 279 25 73 147 114 132 216 254 144 141 143 143 146 147 150 156 161
359 357 355 354 353 350 347 344 342 341 339 337 336 334 334 334 325 308 298 299 300 301 303 308 316 323 332 344 2 18 90 247 271 279 282 279 234 179 174 181 186 191 205 221 226 230 285 328 352 289 277 288 250 149 179 118 87 115 177 218 211 191 169 156 149 128 105 109 144 145 102 356 59 75 106 122 173 240 305 119 140 146 143 146 150 157 161 164
360 358 355 353 351 349 347 344 342 341 339 337 336 334 333 332 323 303 295 294 294 298 298 303 313 321 338 352 18 11 184 255 279 237 205 228 202 179 174 179 187 194 202 211 207 191 330 317 277 264 272 280 196 147 149 86 42 130 174 204 187 157 159 130 116 109 93 91 129 99 87 91 161 102 153 162 177 230 325 103 139 149 146 151 157 163 166 170
359 357 355 353 350 348 346 344 342 340 340 338 336 335 334 331 322 301 292 290 291 292 294 299 303 313 345 1 75 6 267 252 236 159 169 186 182 176 174 179 189 193 199 211 214 204 296 240 236 233 285 307 140 153 159 114 254 220 181 181 148 135 148 128 108 107 102 95 92 82 85 24 304 315 191 184 156 231 76 114 155 160 153 161 164 168 172 174
356 355 353 351 349 348 346 344 342 340 340 340 338 336 335 332 320 300 292 291 290 287 289 289 283 278 41 55 91 16 269 232 175 167 161 162 161 168 176 184 189 189 194 206 213 218 217 218 231 247 291 308 290 178 192 171 176 178 167 157 146 146 150 142 126 126 113 97 191 109 128 253 300 54 182 222 99 63 58 121 172 171 162 167 168 174 176 178
354 353 351 350 349 347 346 344 342 340 339 340 339 337 336 333 320 305 299 293 287 282 280 271 257 184 132 88 121 222 250 212 192 171 157 165 146 161 179 183 187 188 190 194 218 227 225 241 264 303 280 267 296 241 233 199 133 151 160 127 138 141 127 129 123 147 132 93 191 113 94 286 322 117 204 233 83 84 67 117 170 172 168 167 169 176 176 183
353 351 349 348 347 347 345 343 342 340 338 340 340 338 336 333 320 311 303 294 285 274 269 259 214 174 137 101 203 235 220 182 196 171 162 164 123 143 177 176 186 192 192 193 233 240 248 274 283 291 248 235 319 279 252 181 122 139 141 112 146 109 96 168 136 163 149 132 186 117 21 302 291 221 225 215 102 84 77 76 161 172 173 166 171 176 176 181
352 350 348 347 346 346 345 342 341 339 337 338 340 338 334 329 322 319 310 301 286 271 262 236 192 170 101 208 240 255 238 206 209 188 182 177 135 142 185 189 190 202 203 206 248 257 265 281 281 267 250 200 191 254 162 135 99 85 84 99 139 42 291 214 156 158 144 145 158 107 339 266 254 245 244 172 103 84 79 49 105 165 175 171 171 174 177 176
351 349 347 346 345 344 344 342 340 339 337 337 340 338 331 327 326 322 316 309 293 274 246 190 171 150 122 257 266 281 282 256 236 221 204 200 193 166 195 210 211 221 224 229 250 263 274 291 304 310 266 208 196 176 102 108 73 105 76 23 126 142 265 217 161 153 137 131 127 92 301 251 256 249 235 144 106 98 93 61 76 70 116 172 168 170 176 170
350 348 347 346 344 343 342 340 339 338 336 337 340 337 329 327 331 329 323 320 309 258 189 158 162 141 64 279 275 289 293 258 228 227 213 205 209 190 201 216 215 220 228 238 255 277 292 306 318 309 286 292 1 72 75 53 23 101 144 311 258 194 251 242 201 165 145 153 130 116 240 258 259 247 225 146 110 107 104 75 87 68 48 125 133 146 163 157
349 348 347 344 342 341 341 340 338 337 335 336 340 339 331 330 339 351 344 349 14 147 135 122 160 154 17 278 288 298 272 229 217 224 212 206 209 200 199 208 209 210 218 233 253 277 288 307 304 226 280 301 317 108 70 312 320 304 186 225 235 194 225 260 245 179 150 136 153 165 206 262 255 224 206 139 112 110 110 95 93 83 60 69 78 104 126 122
349 348 346 344 341 340 339 339 337 335 335 336 339 340 329 329 333 34 48 76 86 129 136 41 358 144 254 273 304 299 247 223 222 214 202 203 208 211 197 191 210 213 218 230 235 261 283 315 277 276 308 281 208 115 84 265 255 260 209 220 229 173 176 206 261 201 160 146 181 194 215 262 276 205 181 149 122 120 130 136 114 101 88 66 52 78 106 125
349 347 346 343 340 339 339 338 336 334 333 334 338 334 312 311 163 95 79 102 98 96 315 325 5 87 266 270 277 263 226 217 220 210 200 199 207 222 210 172 201 195 194 244 239 251 273 324 319 320 306 269 188 124 178 235 226 215 202 207 230 166 182 204 205 186 171 167 184 184 228 263 285 250 192 177 136 135 160 166 135 117 112 94 73 76 94 115
348 347 346 343 340 339 338 337 336 333 331 332 337 335 301 212 158 121 100 118 103 93 277 229 169 158 260 245 236 269 284 228 210 211 209 206 212 225 223 195 186 158 120 50 267 248 180 336 358 277 264 249 225 192 211 236 238 234 228 190 174 174 211 216 206 179 164 159 195 187 217 249 256 227 211 209 159 146 167 174 144 134 132 130 117 89 89 104
348 347 346 343 340 337 336 336 335 331 328 328 334 350 327 124 74 311 205 206 210 217 241 211 189 225 275 278 272 296 299 219 191 205 207 203 202 205 212 215 147 124 137 155 221 247 144 178 248 226 236 238 235 226 228 248 260 260 264 259 201 183 219 218 192 186 152 144 221 209 214 236 230 218 210 204 176 159 171 180 172 161 155 157 155 132 111 112
347 346 345 343 339 336 336 335 333 329 326 323 329 18 202 193 97 318 279 233 227 221 239 227 197 220 251 267 274 295 325 200 190 206 198 187 168 159 217 189 122 157 210 175 192 285 119 188 233 232 235 239 242 243 240 249 254 255 260 260 221 181 214 211 172 175 148 150 233 216 211 232 225 216 207 191 187 190 185 180 187 181 169 162 164 159 140 120
346 345 344 342 339 336 335 335 332 329 329 331 338 160 249 262 267 322 309 269 255 217 226 238 215 231 244 256 266 271 312 247 219 216 189 173 147 154 219 158 145 211 230 170 151 77 148 226 238 234 238 246 252 255 252 253 253 254 249 209 181 173 141 26 180 164 149 165 244 209 204 231 225 210 205 198 199 203 194 187 187 179 171 171 168 167 156 140
345 343 342 341 338 335 333 333 331 331 349 352 296 217 290 312 317 328 324 287 287 216 210 231 217 234 240 253 263 248 244 238 212 217 187 166 151 169 172 158 179 209 219 183 183 165 191 238 235 230 237 244 250 252 247 255 260 247 209 158 177 176 145 183 220 175 165 184 191 177 197 261 232 204 229 218 219 229 209 200 192 175 176 177 167 161 157 153
344 342 342 340 337 335 332 331 327 346 359 330 286 300 329 326 316 324 329 275 295 250 213 215 200 215 225 233 244 203 209 219 193 205 184 165 146 154 166 176 180 214 227 204 196 190 220 239 230 223 233 237 246 255 247 244 259 252 194 158 168 181 178 190 181 153 164 223 167 116 82 315 210 193 237 225 230 260 226 201 203 190 183 171 155 163 168 157
344 341 340 339 338 333 330 329 311 6 346 313 293 338 348 341 318 313 334 0 296 278 237 205 186 214 222 215 215 190 193 212 202 186 177 169 152 143 189 184 157 222 233 218 207 211 239 245 226 210 232 238 245 257 253 217 244 290 224 166 170 187 186 135 129 127 115 247 228 135 102 294 235 203 226 206 206 238 216 194 207 199 180 173 167 177 188 167
343 340 339 339 338 333 333 338 269 334 333 296 310 346 359 3 346 297 131 38 310 275 264 166 171 202 205 186 186 151 116 235 220 170 171 177 168 153 181 195 180 228 223 215 211 213 243 241 222 208 221 231 238 253 256 218 196 313 244 172 176 186 165 138 144 141 154 224 224 168 153 265 272 227 223 199 202 225 220 203 206 199 185 184 182 184 195 192
342 340 338 337 338 337 335 309 314 327 322 297 329 342 355 355 344 344 102 29 303 253 197 293 291 182 187 176 160 127 124 243 210 160 173 182 178 144 166 203 230 230 210 175 244 238 241 244 232 217 215 219 223 241 243 197 144 253 236 165 178 178 154 155 159 163 198 204 204 183 145 119 266 244 208 181 196 226 233 219 206 200 197 193 192 192 195 197
340 339 337 335 337 334 313 290 311 320 293 322 334 338 349 351 349 55 87 19 267 241 156 227 294 171 204 176 156 161 213 180 107 194 181 176 179 121 181 214 213 228 234 131 262 264 253 266 248 221 214 217 209 222 221 167 156 248 249 141 176 169 158 162 160 179 211 103 155 213 162 113 265 280 173 162 192 225 229 223 209 199 201 198 195 197 197 196
339 339 336 332 334 329 298 283 288 303 337 341 346 346 346 350 7 68 82 41 253 279 111 87 111 178 260 135 162 202 233 114 121 222 161 170 184 115 184 217 208 248 257 189 235 270 264 261 255 223 209 226 229 226 208 167 213 263 2 39 107 136 147 157 162 180 157 118 211 216 185 158 267 283 128 144 199 225 224 223 214 202 201 202 197 196 196 192
338 340 335 329 331 333 301 285 270 331 4 357 351 346 347 1 44 67 50 266 259 281 330 56 260 159 139 154 189 221 219 142 82 103 81 155 188 59 216 220 168 250 286 234 243 266 266 268 260 227 209 218 230 230 196 183 218 248 50 33 0 37 90 130 155 142 111 229 240 206 180 159 279 271 192 170 204 208 203 214 219 210 203 203 201 193 191 188
339 340 333 324 319 258 255 282 305 13 1 351 347 348 12 31 64 89 135 261 286 291 260 216 239 147 148 168 193 207 206 300 76 119 109 135 147 358 325 330 56 269 318 300 280 284 288 294 275 242 230 213 211 256 244 202 226 205 88 71 29 352 15 39 20 69 143 252 251 197 170 151 173 257 220 218 224 193 185 198 209 208 203 202 202 191 185 185
341 340 329 315 300 244 229 228 357 352 349 355 358 19 68 46 37 155 255 318 346 268 247 196 209 197 168 170 181 178 182 199 132 153 160 155 168 203 216 203 185 29 312 271 281 315 300 271 262 261 258 222 159 264 306 347 18 123 112 86 92 313 355 17 312 254 211 255 253 161 148 156 227 242 216 215 224 199 186 195 200 200 198 195 197 192 186 184
345 342 327 307 300 272 254 257 281 319 358 8 13 53 76 75 260 236 258 318 316 247 270 159 197 192 149 153 196 182 170 204 197 168 166 159 168 210 231 215 177 158 231 236 266 325 309 292 285 267 263 224 162 180 255 298 330 140 142 126 130 150 91 249 264 280 255 275 279 141 146 184 271 262 224 209 212 204 194 199 199 195 190 189 191 187 182 184
352 350 334 311 318 316 287 250 184 32 8 11 38 67 67 100 240 251 252 276 262 279 320 199 204 175 155 190 207 177 166 210 195 163 160 158 170 220 243 232 202 179 190 233 254 206 276 303 282 221 240 201 182 198 182 163 188 194 171 138 138 163 159 195 218 212 242 260 331 109 141 182 207 246 253 209 199 196 189 194 185 179 179 177 178 175 178 187
3 0 337 318 334 354 95 136 124 63 20 28 63 71 89 193 257 274 258 270 289 310 324 304 184 166 208 249 244 198 186 215 201 168 163 175 186 208 210 213 212 193 155 191 242 201 209 256 243 234 230 186 183 203 155 118 228 247 144 108 165 190 151 164 198 184 195 199 37 53 122 204 201 276 318 124 127 108 129 139 135 144 153 152 160 173 180 185
12 17 357 319 330 32 106 113 123 112 63 67 66 67 163 216 245 264 272 298 313 308 321 344 97 115 298 310 316 278 270 287 203 175 185 199 199 206 206 208 201 189 176 180 220 212 205 257 260 288 271 198 181 181 160 144 177 250 109 173 229 183 140 174 264 323 67 94 38 40 79 332 323 336 338 27 107 99 107 124 135 144 148 152 164 174 180 181
7 12 356 294 303 143 124 110 129 130 73 77 87 167 231 247 247 253 290 301 298 297 343 9 12 68 46 339 329 329 334 324 225 187 217 227 230 215 212 222 198 190 191 187 211 220 180 268 284 280 266 238 194 168 171 172 154 134 188 219 236 47 93 132 255 345 47 97 299 95 142 188 238 222 309 322 118 130 134 136 139 143 153 167 174 172 174 172
355 357 329 270 146 124 120 134 153 131 69 71 89 233 236 254 260 263 283 290 297 337 39 23 315 66 76 86 319 333 9 30 310 308 272 240 255 227 207 216 209 201 201 189 207 231 167 248 290 248 210 235 206 125 144 254 213 172 197 199 134 67 305 347 153 221 35 146 188 48 135 189 215 199 198 208 192 173 164 152 147 154 168 179 178 167 158 150
355 3 343 171 132 103 113 151 162 78 62 58 267 253 245 254 267 272 282 292 309 4 23 3 318 346 75 123 317 321 12 129 282 305 300 229 256 251 216 219 224 215 203 184 187 216 167 186 284 279 208 164 39 94 166 248 260 253 282 276 126 155 185 199 191 161 149 172 156 76 10 229 232 208 184 193 197 177 168 169 164 168 180 185 174 157 149 156
9 28 14 150 132 113 132 145 70 58 74 103 206 244 288 281 282 284 286 289 285 290 334 309 327 327 315 110 104 304 283 187 219 251 226 215 253 299 314 271 259 241 207 185 187 199 156 176 244 295 307 133 171 227 188 203 218 202 248 255 251 212 185 184 262 144 135 142 142 146 212 251 251 208 184 191 192 177 171 170 168 171 183 188 170 153 156 171
8 41 91 140 140 136 117 97 31 78 149 272 232 252 286 277 280 295 301 302 277 177 246 299 349 346 313 321 22 318 311 308 253 240 226 261 267 332 357 344 317 298 225 186 193 193 171 180 211 273 27 166 230 250 206 202 196 173 190 212 198 197 188 165 285 295 111 130 156 156 186 259 265 196 185 192 183 174 171 163 160 169 180 184 169 153 157 168
32 49 327 51 152 175 83 49 299 141 179 271 256 260 291 294 289 319 335 340 352 6 356 23 35 3 312 329 5 352 346 324 278 272 261 285 304 20 359 355 347 339 332 200 218 206 170 136 179 219 211 203 238 249 231 233 216 180 199 214 176 147 131 151 225 263 42 91 121 113 129 265 269 184 179 193 171 164 168 158 152 163 179 181 164 147 150 167
45 286 313 5 353 241 75 27 310 347 296 264 288 297 306 318 329 350 355 356 358 351 354 14 17 359 332 350 354 354 2 319 274 342 316 307 9 24 3 356 352 356 6 335 269 226 181 128 171 250 301 297 292 286 270 268 230 215 263 234 168 171 163 162 188 182 119 130 107 73 79 269 270 198 152 159 154 149 154 150 146 156 179 182 164 150 156 170
349 264 282 356 360 25 84 14 331 348 317 311 351 340 327 338 349 347 351 8 10 355 355 8 10 6 351 344 331 308 334 317 322 30 8 330 354 11 3 353 349 7 16 350 337 283 241 195 132 80 343 337 342 338 329 339 359 249 264 234 183 191 173 150 138 90 89 184 147 110 171 252 269 144 118 139 152 146 151 153 151 157 171 181 173 161 164 166
331 298 255 337 1 36 80 352 8 354 328 342 355 341 336 334 338 345 360 27 22 2 359 20 19 16 6 358 347 330 347 3 2 19 14 344 336 3 2 346 344 6 4 358 359 335 257 186 125 132 168 231 264 261 268 325 322 289 293 295 258 199 189 189 121 79 51 206 155 137 189 247 281 118 132 163 158 142 151 158 156 163 167 173 177 168 165 164
359 19 323 323 359 32 27 322 27 13 337 345 337 322 332 325 329 360 17 32 17 3 22 40 24 16 12 7 353 336 347 359 13 16 6 351 336 352 356 337 337 2 6 6 3 348 295 0 106 144 157 188 192 213 231 254 293 289 300 308 309 270 235 150 112 141 185 174 175 186 171 173 211 182 167 186 170 153 158 160 160 168 168 171 176 167 161 161
39 25 8 340 329 0 359 352 14 3 329 329 318 313 347 353 355 5 16 24 6 0 23 53 35 24 8 0 351 331 334 342 20 19 353 342 327 323 352 342 340 4 10 10 1 354 22 336 319 145 171 195 183 201 232 280 275 276 293 299 300 303 329 60 137 214 165 137 209 226 163 160 190 192 183 190 181 163 164 166 166 169 170 170 165 156 153 151
36 152 16 24 288 328 355 328 334 337 326 324 337 2 11 18 17 6 359 2 10 14 19 27 23 18 2 358 356 330 331 345 13 3 345 346 340 337 353 350 351 9 10 5 1 5 350 293 311 308 269 239 197 187 164 64 305 302 317 305 304 318 336 337 257 215 161 164 213 194 172 176 186 188 190 192 181 170 171 171 168 165 163 162 156 154 155 151
30 10 345 24 334 252 254 289 302 317 330 337 2 13 17 26 22 5 347 349 7 22 24 6 357 357 351 356 4 340 343 354 349 341 346 350 343 341 348 341 354 13 6 353 357 8 343 306 335 329 300 281 284 255 108 60 337 328 318 310 318 323 326 328 309 219 170 214 201 170 182 192 184 186 193 191 181 172 164 158 160 162 162 161 160 162 163 160
25 346 334 358 325 284 264 298 316 332 359 8 16 10 13 24 20 2 346 3 6 4 12 359 340 339 337 339 351 357 360 352 330 326 340 342 340 350 347 336 343 350 352 348 346 1 354 319 334 342 325 303 310 334 45 34 348 319 311 314 321 321 336 7 2 10 15 312 164 158 179 210 209 191 180 168 163 154 150 156 164 167 166 163 163 167 169 169
357 301 333 350 305 324 328 325 343 9 23 20 18 5 7 17 14 356 335 7 14 354 354 345 330 326 324 335 356 351 344 337 319 314 320 316 310 311 289 317 336 331 336 343 326 342 355 319 327 1 349 305 305 328 353 9 19 356 322 314 316 323 2 50 40 31 14 343 72 129 166 215 221 180 137 140 157 155 158 167 169 170 171 167 166 170 173 173
360 330 355 16 259 332 350 336 354 26 37 15 5 359 2 5 5 2 346 340 358 356 351 343 332 326 330 355 356 335 319 310 300 295 299 291 273 256 248 252 285 297 306 325 314 307 9 332 323 352 340 303 300 308 322 358 12 351 291 288 295 335 90 70 42 32 20 30 142 155 201 217 189 148 138 159 172 166 166 171 171 173 175 173 172 172 173 176